Location: Unspecified
(44.9060°N, 0.0000°E)
Time: 18:52:33
(UTC+00:00)

METEOR 2-17 DEB - Visible Passes

Search period start: 04 April 2026 00:00
Search period end: 14 April 2026 00:00
Orbit: 854 x 873 km, 82.5° (Epoch: 15 September)

Date Brightness Start Highest point End Pass type
(mag) Time Alt. Az. Time Alt. Az. Time Alt. Az.
4 Apr ? 03:24:29 10° E 03:25:23 10° ENE 03:26:16 10° ENE visible
4 Apr ? 05:01:39 10° S 05:07:16 78° E 05:12:56 10° NNE visible
5 Apr ? 04:52:07 10° S 04:57:43 75° E 05:03:23 10° NNE visible
6 Apr ? 04:42:35 10° S 04:48:11 71° E 04:53:49 10° NNE visible
7 Apr ? 04:33:03 10° S 04:38:38 68° E 04:44:15 10° NNE visible
8 Apr ? 04:23:31 10° S 04:29:04 65° E 04:34:41 10° NNE visible
9 Apr ? 04:13:58 10° S 04:19:30 62° E 04:25:06 10° NNE visible
10 Apr ? 04:04:25 10° S 04:09:56 60° E 04:15:30 10° NNE visible
11 Apr ? 03:54:52 10° S 04:00:22 57° E 04:05:54 10° NNE visible
12 Apr ? 03:45:19 10° SSE 03:50:47 54° E 03:56:18 10° NNE visible
13 Apr ? 03:35:46 10° SSE 03:41:11 52° E 03:46:41 10° NNE visible
